GLD352 SCCF-SLLP

Flight info

Callsign GLD352
Flight time 1h 2m
Altitude 38000
Route VUREL DCT TOKOL UL309 IROBO
Aircraft B738/M-SDFGIRY/S

Departure

Time 2026-05-03 23:36
Airport El Loa Airport (SCCF)

Arrival

Time 2026-05-04 00:39
Airport El Alto International Airport (SLLP)
Time Latitude Longitude Altitude Speed Heading
2026-05-03 23:14 -22.49597 -68.90754 7506 ft 0 kts
2026-05-03 23:23 -22.49608 -68.90755 7491 ft 4 kts 13°
2026-05-03 23:23 -22.49630 -68.90761 7500 ft 4 kts 13°
2026-05-03 23:23 -22.49652 -68.90772 7499 ft 4 kts 61°
2026-05-03 23:23 -22.49657 -68.90799 7502 ft 4 kts 93°
2026-05-03 23:24 -22.49656 -68.90809 7498 ft 0 kts 93°
2026-05-03 23:27 -22.49657 -68.90806 7495 ft 2 kts 94°
2026-05-03 23:28 -22.49674 -68.90782 7501 ft 7 kts 147°
2026-05-03 23:28 -22.49743 -68.90773 7494 ft 15 kts 184°
2026-05-03 23:28 -22.49802 -68.90878 7497 ft 22 kts 276°
2026-05-03 23:28 -22.49792 -68.90913 7492 ft 5 kts 296°
2026-05-03 23:29 -22.49797 -68.90934 7494 ft 3 kts 168°
2026-05-03 23:29 -22.49801 -68.90911 7489 ft 4 kts 90°
2026-05-03 23:29 -22.49801 -68.90866 7498 ft 9 kts 91°
2026-05-03 23:29 -22.49804 -68.90777 7500 ft 15 kts 93°
2026-05-03 23:30 -22.49810 -68.90645 7513 ft 18 kts 93°
2026-05-03 23:30 -22.49825 -68.90507 7524 ft 19 kts 105°
2026-05-03 23:30 -22.49835 -68.90369 7536 ft 18 kts 91°
2026-05-03 23:30 -22.49838 -68.90235 7545 ft 18 kts 91°
2026-05-03 23:31 -22.49843 -68.90105 7554 ft 17 kts 92°
2026-05-03 23:31 -22.49856 -68.89981 7564 ft 16 kts 96°
2026-05-03 23:31 -22.49867 -68.89861 7572 ft 16 kts 95°
2026-05-03 23:31 -22.49877 -68.89737 7578 ft 18 kts 94°
2026-05-03 23:32 -22.49886 -68.89598 7587 ft 19 kts 94°
2026-05-03 23:32 -22.49895 -68.89456 7594 ft 19 kts 93°
2026-05-03 23:32 -22.49903 -68.89318 7601 ft 18 kts 93°
2026-05-03 23:32 -22.49910 -68.89180 7610 ft 18 kts 93°
2026-05-03 23:33 -22.49918 -68.89045 7619 ft 18 kts 94°
2026-05-03 23:33 -22.49931 -68.88917 7629 ft 15 kts 101°
2026-05-03 23:33 -22.49979 -68.88844 7635 ft 12 kts 164°
2026-05-03 23:33 -22.50009 -68.88842 7635 ft 0 kts 182°
2026-05-03 23:35 -22.50026 -68.88843 7635 ft 5 kts 182°
2026-05-03 23:35 -22.50080 -68.88853 7635 ft 11 kts 204°
2026-05-03 23:35 -22.50106 -68.88954 7629 ft 21 kts 273°
2026-05-03 23:36 -22.50081 -68.89325 7603 ft 87 kts 274°
2026-05-03 23:36 -22.50023 -68.90229 7547 ft 153 kts 275°
2026-05-03 23:36 -22.49926 -68.91552 7767 ft 185 kts 275°
2026-05-03 23:36 -22.49797 -68.92937 8391 ft 190 kts 272°
2026-05-03 23:37 -22.49699 -68.94382 9086 ft 199 kts 270°
2026-05-03 23:37 -22.49604 -68.95954 9289 ft 224 kts 271°
2026-05-03 23:37 -22.49490 -68.97716 9686 ft 236 kts 271°
2026-05-03 23:37 -22.49369 -68.99506 10176 ft 242 kts 271°
2026-05-03 23:38 -22.49231 -69.01393 10338 ft 263 kts 275°
2026-05-03 23:38 -22.48522 -69.03293 10467 ft 288 kts 308°
2026-05-03 23:38 -22.46921 -69.04765 10159 ft 327 kts 325°
2026-05-03 23:38 -22.44660 -69.05853 9823 ft 370 kts 341°
2026-05-03 23:39 -22.42326 -69.06783 10804 ft 361 kts 338°
2026-05-03 23:39 -22.39979 -69.07820 11707 ft 359 kts 336°
2026-05-03 23:39 -22.37651 -69.08892 12373 ft 363 kts 335°
2026-05-03 23:39 -22.35316 -69.09982 13024 ft 368 kts 335°
2026-05-03 23:40 -22.32968 -69.11082 13678 ft 372 kts 336°
2026-05-03 23:40 -22.30575 -69.12203 14240 ft 377 kts 336°
2026-05-03 23:40 -22.28202 -69.13311 14833 ft 379 kts 335°
2026-05-03 23:40 -22.25731 -69.14464 15497 ft 381 kts 335°
2026-05-03 23:41 -22.23294 -69.15599 16140 ft 383 kts 335°
2026-05-03 23:41 -22.20842 -69.16739 16787 ft 385 kts 335°
2026-05-03 23:41 -22.18389 -69.17879 17412 ft 388 kts 335°
2026-05-03 23:41 -22.15889 -69.19041 18044 ft 390 kts 335°
2026-05-03 23:42 -22.13385 -69.20204 18665 ft 391 kts 335°
2026-05-03 23:42 -22.10891 -69.21362 19316 ft 390 kts 335°
2026-05-03 23:42 -22.08422 -69.22507 19844 ft 393 kts 335°
2026-05-03 23:42 -22.05883 -69.23685 20352 ft 396 kts 335°
2026-05-03 23:43 -22.03346 -69.24862 20920 ft 398 kts 335°
2026-05-03 23:43 -22.00799 -69.26043 21475 ft 399 kts 335°
2026-05-03 23:43 -21.98285 -69.27208 21988 ft 402 kts 335°
2026-05-03 23:43 -21.95721 -69.28396 22492 ft 405 kts 335°
2026-05-03 23:44 -21.93070 -69.29623 23017 ft 407 kts 335°
2026-05-03 23:44 -21.90458 -69.30833 23529 ft 410 kts 335°
2026-05-03 23:44 -21.87852 -69.32039 23943 ft 412 kts 335°
2026-05-03 23:44 -21.85197 -69.33266 24373 ft 414 kts 335°
2026-05-03 23:45 -21.82440 -69.34131 24748 ft 420 kts 353°
2026-05-03 23:45 -21.79511 -69.33951 25163 ft 426 kts 12°
2026-05-03 23:45 -21.76732 -69.32829 25590 ft 431 kts 28°
2026-05-03 23:45 -21.74377 -69.30902 25986 ft 436 kts 41°
2026-05-03 23:46 -21.72167 -69.28657 26402 ft 438 kts 42°
2026-05-03 23:46 -21.69972 -69.26362 26753 ft 441 kts 43°
2026-05-03 23:46 -21.67768 -69.24049 27120 ft 445 kts 43°
2026-05-03 23:46 -21.65546 -69.21732 27482 ft 447 kts 42°
2026-05-03 23:47 -21.63297 -69.19409 27866 ft 449 kts 42°
2026-05-03 23:47 -21.61032 -69.17089 28223 ft 451 kts 41°
2026-05-03 23:47 -21.58762 -69.14774 28574 ft 453 kts 41°
2026-05-03 23:47 -21.56451 -69.12425 28950 ft 456 kts 41°
2026-05-03 23:48 -21.54144 -69.10083 29287 ft 458 kts 41°
2026-05-03 23:48 -21.51822 -69.07728 29627 ft 460 kts 41°
2026-05-03 23:48 -21.49561 -69.05434 29943 ft 462 kts 41°
2026-05-03 23:48 -21.47143 -69.02982 30245 ft 465 kts 41°
2026-05-03 23:49 -21.44799 -69.00605 30492 ft 468 kts 41°
2026-05-03 23:49 -21.42413 -68.98187 30764 ft 471 kts 41°
2026-05-03 23:49 -21.40025 -68.95767 30978 ft 474 kts 41°
2026-05-03 23:49 -21.37615 -68.93327 31173 ft 478 kts 41°
2026-05-03 23:50 -21.35197 -68.90879 31429 ft 479 kts 41°
2026-05-03 23:50 -21.33590 -68.89253 31667 ft 479 kts 41°
2026-05-03 23:50 -21.30346 -68.85970 32188 ft 479 kts 40°
2026-05-03 23:50 -21.27923 -68.83520 32510 ft 479 kts 40°
2026-05-03 23:51 -21.25494 -68.81065 32801 ft 480 kts 40°
2026-05-03 23:51 -21.23064 -68.78611 33103 ft 481 kts 40°
2026-05-03 23:51 -21.20560 -68.76246 33397 ft 478 kts 32°
2026-05-03 23:51 -21.17719 -68.74454 33666 ft 472 kts 19°
2026-05-03 23:52 -21.14649 -68.73283 33990 ft 465 kts
2026-05-03 23:52 -21.11486 -68.72737 34314 ft 458 kts
2026-05-03 23:52 -21.08322 -68.72432 34641 ft 456 kts 359°
2026-05-03 23:52 -21.05167 -68.72144 34970 ft 454 kts 359°
2026-05-03 23:53 -21.02035 -68.71851 35346 ft 451 kts 359°
2026-05-03 23:53 -20.98916 -68.71545 35716 ft 449 kts 359°
2026-05-03 23:53 -20.95819 -68.71228 36057 ft 447 kts 359°
2026-05-03 23:53 -20.92764 -68.70908 36370 ft 445 kts 359°
2026-05-03 23:54 -20.89641 -68.70577 36624 ft 445 kts 359°
2026-05-03 23:54 -20.86609 -68.70254 36918 ft 443 kts 359°
2026-05-03 23:54 -20.83545 -68.69927 37240 ft 441 kts 359°
2026-05-03 23:54 -20.80497 -68.69602 37555 ft 439 kts 359°
2026-05-03 23:55 -20.74352 -68.68965 37732 ft 444 kts 359°
2026-05-03 23:55 -20.69184 -68.67916 37996 ft 455 kts
2026-05-03 23:56 -20.66123 -68.67130 37997 ft 447 kts 357°
2026-05-03 23:56 -20.63079 -68.67159 38163 ft 431 kts 350°
2026-05-03 23:56 -20.57109 -68.67145 37915 ft 434 kts 357°
2026-05-03 23:57 -20.51155 -68.66534 38042 ft 428 kts 360°
2026-05-03 23:57 -20.45203 -68.65833 38161 ft 434 kts 359°
2026-05-03 23:58 -20.39142 -68.65174 38144 ft 440 kts 359°
2026-05-03 23:58 -20.33009 -68.64510 38188 ft 446 kts 359°
2026-05-03 23:59 -20.26855 -68.63835 38135 ft 439 kts 359°
2026-05-03 23:59 -20.20843 -68.63172 38146 ft 434 kts 359°
2026-05-04 00:00 -20.14833 -68.62518 38151 ft 435 kts 359°
2026-05-04 00:00 -20.08812 -68.61863 38142 ft 436 kts 359°
2026-05-04 00:01 -20.02766 -68.61205 38166 ft 438 kts 359°
2026-05-04 00:01 -19.96690 -68.60543 38148 ft 440 kts 359°
2026-05-04 00:02 -19.90596 -68.59878 38151 ft 440 kts 359°
2026-05-04 00:02 -19.84505 -68.59214 38117 ft 440 kts 359°
2026-05-04 00:03 -19.78425 -68.58552 38087 ft 438 kts 359°
2026-05-04 00:03 -19.72387 -68.57895 38105 ft 435 kts 360°
2026-05-04 00:04 -19.66363 -68.57241 38103 ft 434 kts 359°
2026-05-04 00:04 -19.60350 -68.56590 38101 ft 434 kts 360°
2026-05-04 00:05 -19.54327 -68.55937 38082 ft 435 kts 360°
2026-05-04 00:05 -19.48299 -68.55285 38078 ft 435 kts 360°
2026-05-04 00:06 -19.42273 -68.54635 38073 ft 437 kts 360°
2026-05-04 00:06 -19.36231 -68.53981 38074 ft 438 kts 360°
2026-05-04 00:07 -19.30143 -68.53321 38072 ft 439 kts 360°
2026-05-04 00:07 -19.24060 -68.52664 38083 ft 440 kts 360°
2026-05-04 00:08 -19.17974 -68.52006 38074 ft 441 kts 360°
2026-05-04 00:08 -19.11870 -68.51348 38056 ft 440 kts
2026-05-04 00:09 -19.05785 -68.50691 38072 ft 440 kts
2026-05-04 00:09 -18.99690 -68.50035 38072 ft 440 kts
2026-05-04 00:10 -18.93636 -68.49383 38075 ft 440 kts
2026-05-04 00:10 -18.87547 -68.48728 38062 ft 440 kts
2026-05-04 00:11 -18.81495 -68.48078 38059 ft 439 kts
2026-05-04 00:11 -18.75421 -68.47425 38064 ft 439 kts
2026-05-04 00:12 -18.69353 -68.46774 38059 ft 438 kts
2026-05-04 00:12 -18.63286 -68.46124 38037 ft 438 kts
2026-05-04 00:13 -18.57224 -68.45474 38039 ft 438 kts
2026-05-04 00:13 -18.51169 -68.44826 38045 ft 437 kts
2026-05-04 00:14 -18.45117 -68.44178 38062 ft 437 kts
2026-05-04 00:14 -18.39064 -68.43531 38057 ft 437 kts
2026-05-04 00:15 -18.33007 -68.42884 38073 ft 438 kts
2026-05-04 00:15 -18.26946 -68.42237 38075 ft 438 kts
2026-05-04 00:16 -18.20875 -68.41589 38087 ft 439 kts
2026-05-04 00:16 -18.14796 -68.40941 38090 ft 439 kts
2026-05-04 00:17 -18.11737 -68.40615 37679 ft 445 kts
2026-05-04 00:17 -18.08674 -68.40288 37362 ft 439 kts
2026-05-04 00:17 -18.05646 -68.39964 36928 ft 436 kts
2026-05-04 00:17 -18.02640 -68.39642 36530 ft 432 kts
2026-05-04 00:18 -17.99658 -68.39320 36132 ft 429 kts
2026-05-04 00:18 -17.96702 -68.39001 35725 ft 426 kts
2026-05-04 00:18 -17.93761 -68.38682 35330 ft 423 kts
2026-05-04 00:18 -17.90841 -68.38367 34930 ft 421 kts
2026-05-04 00:19 -17.87932 -68.38053 34527 ft 419 kts
2026-05-04 00:19 -17.85044 -68.37742 34118 ft 417 kts
2026-05-04 00:19 -17.82164 -68.37432 33685 ft 415 kts
2026-05-04 00:19 -17.79301 -68.37124 33278 ft 412 kts
2026-05-04 00:20 -17.76454 -68.36817 32882 ft 410 kts
2026-05-04 00:20 -17.73625 -68.36513 32496 ft 407 kts
2026-05-04 00:20 -17.70815 -68.36210 32114 ft 405 kts
2026-05-04 00:20 -17.68055 -68.35913 31740 ft 403 kts
2026-05-04 00:21 -17.65271 -68.35614 31371 ft 401 kts
2026-05-04 00:21 -17.62499 -68.35317 30986 ft 400 kts
2026-05-04 00:21 -17.59705 -68.35017 30613 ft 399 kts
2026-05-04 00:21 -17.56984 -68.34724 30233 ft 396 kts
2026-05-04 00:22 -17.54268 -68.34431 29805 ft 390 kts
2026-05-04 00:22 -17.51598 -68.34143 29407 ft 382 kts
2026-05-04 00:22 -17.48971 -68.33861 29018 ft 375 kts
2026-05-04 00:22 -17.46398 -68.33585 28660 ft 369 kts
2026-05-04 00:23 -17.43868 -68.33314 28299 ft 363 kts
2026-05-04 00:23 -17.41364 -68.33206 27846 ft 359 kts 355°
2026-05-04 00:23 -17.38883 -68.33354 27427 ft 359 kts 353°
2026-05-04 00:23 -17.36360 -68.33559 27053 ft 369 kts 353°
2026-05-04 00:24 -17.33770 -68.33780 26673 ft 377 kts 353°
2026-05-04 00:24 -17.31170 -68.33994 26265 ft 372 kts 354°
2026-05-04 00:24 -17.28607 -68.34194 25907 ft 366 kts 354°
2026-05-04 00:24 -17.26089 -68.34384 25545 ft 359 kts 354°
2026-05-04 00:25 -17.23616 -68.34565 25201 ft 354 kts 354°
2026-05-04 00:25 -17.21178 -68.34742 24856 ft 349 kts 355°
2026-05-04 00:25 -17.18772 -68.34915 24528 ft 344 kts 355°
2026-05-04 00:25 -17.16405 -68.35084 24188 ft 339 kts 355°
2026-05-04 00:26 -17.14088 -68.35250 23869 ft 329 kts 355°
2026-05-04 00:26 -17.11837 -68.35410 23488 ft 318 kts 355°
2026-05-04 00:26 -17.09672 -68.35565 23123 ft 306 kts 355°
2026-05-04 00:26 -17.07585 -68.35713 22816 ft 295 kts 355°
2026-05-04 00:27 -17.05574 -68.35857 22506 ft 285 kts 355°
2026-05-04 00:27 -17.03635 -68.35995 22212 ft 274 kts 355°
2026-05-04 00:27 -17.01762 -68.36129 21948 ft 266 kts 355°
2026-05-04 00:27 -16.99938 -68.36259 21689 ft 260 kts 356°
2026-05-04 00:28 -16.98142 -68.36387 21445 ft 257 kts 356°
2026-05-04 00:28 -16.96374 -68.36513 21218 ft 251 kts 356°
2026-05-04 00:28 -16.94655 -68.36636 20975 ft 245 kts 356°
2026-05-04 00:28 -16.92958 -68.36756 20713 ft 242 kts 356°
2026-05-04 00:29 -16.91282 -68.36876 20467 ft 241 kts 356°
2026-05-04 00:29 -16.89609 -68.36995 20222 ft 241 kts 356°
2026-05-04 00:29 -16.87942 -68.37114 19968 ft 241 kts 356°
2026-05-04 00:29 -16.86273 -68.37233 19728 ft 237 kts 356°
2026-05-04 00:30 -16.84638 -68.37349 19457 ft 234 kts 357°
2026-05-04 00:30 -16.83029 -68.37464 19229 ft 230 kts 357°
2026-05-04 00:30 -16.81436 -68.37577 19092 ft 228 kts 357°
2026-05-04 00:30 -16.79853 -68.37689 18986 ft 228 kts 357°
2026-05-04 00:31 -16.78280 -68.37801 18920 ft 225 kts 357°
2026-05-04 00:31 -16.76733 -68.37911 18854 ft 229 kts 357°
2026-05-04 00:31 -16.75131 -68.38024 18789 ft 234 kts 357°
2026-05-04 00:31 -16.73512 -68.38140 18695 ft 232 kts 357°
2026-05-04 00:32 -16.71914 -68.38253 18606 ft 229 kts 357°
2026-05-04 00:32 -16.70332 -68.38366 18517 ft 227 kts 357°
2026-05-04 00:32 -16.68766 -68.38477 18428 ft 225 kts 357°
2026-05-04 00:32 -16.67212 -68.38587 18347 ft 223 kts 357°
2026-05-04 00:33 -16.65653 -68.38698 18189 ft 227 kts 357°
2026-05-04 00:33 -16.62412 -68.38793 17490 ft 244 kts
2026-05-04 00:33 -16.60750 -68.38720 17219 ft 231 kts
2026-05-04 00:34 -16.59204 -68.38655 16954 ft 215 kts
2026-05-04 00:34 -16.57765 -68.38599 16747 ft 202 kts
2026-05-04 00:34 -16.56372 -68.38547 16594 ft 201 kts
2026-05-04 00:34 -16.54971 -68.38496 16414 ft 202 kts
2026-05-04 00:35 -16.53581 -68.38447 16281 ft 195 kts
2026-05-04 00:35 -16.52246 -68.38345 16026 ft 188 kts 17°
2026-05-04 00:35 -16.51274 -68.37570 15829 ft 177 kts 68°
2026-05-04 00:35 -16.51064 -68.36322 15719 ft 177 kts 88°
2026-05-04 00:36 -16.50954 -68.35033 15507 ft 178 kts 88°
2026-05-04 00:36 -16.50914 -68.33759 15334 ft 174 kts 91°
2026-05-04 00:36 -16.50933 -68.32504 15149 ft 173 kts 93°
2026-05-04 00:36 -16.50967 -68.31259 15008 ft 171 kts 93°
2026-05-04 00:37 -16.51006 -68.30001 14829 ft 173 kts 92°
2026-05-04 00:37 -16.51044 -68.28734 14822 ft 175 kts 92°
2026-05-04 00:37 -16.51082 -68.27478 14786 ft 172 kts 92°
2026-05-04 00:37 -16.51121 -68.26226 14690 ft 175 kts 92°
2026-05-04 00:38 -16.51151 -68.24955 14429 ft 176 kts 92°
2026-05-04 00:38 -16.51183 -68.23671 13990 ft 179 kts 92°
2026-05-04 00:38 -16.51236 -68.22367 13438 ft 181 kts 91°
2026-05-04 00:38 -16.51289 -68.21087 13248 ft 168 kts 90°
2026-05-04 00:39 -16.51326 -68.19965 13237 ft 138 kts 98°
2026-05-04 00:39 -16.51317 -68.20254 13205 ft 0 kts 91°
2026-05-04 00:39 -16.51317 -68.20259 13207 ft 0 kts 90°
2026-05-04 00:40 -16.51317 -68.20199 13207 ft 24 kts 90°
2026-05-04 00:40 -16.51318 -68.19930 13234 ft 44 kts 90°
2026-05-04 00:40 -16.51321 -68.19594 13262 ft 46 kts 92°
2026-05-04 00:41 -16.51345 -68.19292 13279 ft 38 kts 95°
2026-05-04 00:41 -16.51354 -68.19045 13284 ft 31 kts 89°
2026-05-04 00:41 -16.51349 -68.18829 13290 ft 29 kts 88°
2026-05-04 00:41 -16.51348 -68.18626 13294 ft 27 kts 92°
2026-05-04 00:42 -16.51351 -68.18436 13298 ft 26 kts 81°
2026-05-04 00:42 -16.51305 -68.18263 13300 ft 24 kts 65°
2026-05-04 00:42 -16.51212 -68.18127 13313 ft 23 kts 50°
2026-05-04 00:42 -16.51108 -68.18005 13331 ft 22 kts 38°
2026-05-04 00:43 -16.50997 -68.17906 13335 ft 20 kts 71°
2026-05-04 00:43 -16.50964 -68.17821 13335 ft 12 kts 17°
2026-05-04 00:43 -16.50944 -68.17818 13335 ft 0 kts